JIA5830 KRIC-KPHL

Flight info

Callsign JIA5830
Flight time 0h 49m
Altitude 29000
Route LUCYL6 LUCYL HYTRA PAATS4
Aircraft CRJ7/M-SDFGIRWY/S

Departure

Time 2026-04-21 18:54
Airport Richmond International Airport (KRIC)

Arrival

Time 2026-04-21 19:43
Airport Philadelphia International Airport (KPHL)
Time Latitude Longitude Altitude Speed Heading
2026-04-21 18:41 37.50972 -77.32959 171 ft 0 kts 282°
2026-04-21 18:48 37.50970 -77.32952 171 ft 2 kts 282°
2026-04-21 18:48 37.50966 -77.32932 171 ft 2 kts 290°
2026-04-21 18:48 37.50959 -77.32913 171 ft 2 kts 301°
2026-04-21 18:49 37.50948 -77.32897 171 ft 2 kts 321°
2026-04-21 18:49 37.50934 -77.32888 171 ft 2 kts 348°
2026-04-21 18:49 37.50923 -77.32887 171 ft 2 kts
2026-04-21 18:49 37.50911 -77.32888 171 ft 0 kts 10°
2026-04-21 18:50 37.50912 -77.32888 171 ft 2 kts 14°
2026-04-21 18:50 37.50965 -77.32872 171 ft 11 kts 13°
2026-04-21 18:50 37.51056 -77.32845 171 ft 16 kts 13°
2026-04-21 18:51 37.51174 -77.32809 171 ft 18 kts 13°
2026-04-21 18:51 37.51303 -77.32771 171 ft 20 kts 13°
2026-04-21 18:51 37.51439 -77.32731 171 ft 17 kts 13°
2026-04-21 18:51 37.51558 -77.32695 171 ft 19 kts 13°
2026-04-21 18:52 37.51636 -77.32660 171 ft 0 kts 69°
2026-04-21 18:52 37.51638 -77.32597 171 ft 12 kts 90°
2026-04-21 18:52 37.51638 -77.32562 171 ft 0 kts 91°
2026-04-21 18:53 37.51634 -77.32513 171 ft 13 kts 107°
2026-04-21 18:53 37.51529 -77.32476 173 ft 22 kts 193°
2026-04-21 18:53 37.51177 -77.32581 171 ft 95 kts 193°
2026-04-21 18:53 37.50293 -77.32847 393 ft 141 kts 194°
2026-04-21 18:54 37.49277 -77.33152 978 ft 162 kts 194°
2026-04-21 18:54 37.48097 -77.33451 1639 ft 184 kts 185°
2026-04-21 18:54 37.46874 -77.32910 2338 ft 204 kts 137°
2026-04-21 18:54 37.46280 -77.31261 3294 ft 217 kts 95°
2026-04-21 18:55 37.46459 -77.29988 3952 ft 222 kts 65°
2026-04-21 18:55 37.47414 -77.27673 5157 ft 228 kts 64°
2026-04-21 18:55 37.47963 -77.25789 6085 ft 232 kts 73°
2026-04-21 18:55 37.48164 -77.23750 6931 ft 236 kts 74°
2026-04-21 18:56 37.48607 -77.21758 7765 ft 237 kts 65°
2026-04-21 18:56 37.49165 -77.19749 8406 ft 251 kts 63°
2026-04-21 18:56 37.49811 -77.17642 8964 ft 267 kts 62°
2026-04-21 18:56 37.50512 -77.15352 9298 ft 293 kts 64°
2026-04-21 18:57 37.51179 -77.12828 9820 ft 315 kts 66°
2026-04-21 18:57 37.51826 -77.10113 10660 ft 332 kts 68°
2026-04-21 18:57 37.52503 -77.07262 11616 ft 342 kts 67°
2026-04-21 18:57 37.53433 -77.04516 12686 ft 339 kts 52°
2026-04-21 18:58 37.54730 -77.02267 13698 ft 340 kts 46°
2026-04-21 18:58 37.56219 -76.99888 14696 ft 346 kts 46°
2026-04-21 18:58 37.57688 -76.97504 15632 ft 351 kts 46°
2026-04-21 18:58 37.59155 -76.94990 16523 ft 358 kts 48°
2026-04-21 18:59 37.60601 -76.92406 17409 ft 363 kts 48°
2026-04-21 18:59 37.62074 -76.89779 18274 ft 368 kts 48°
2026-04-21 18:59 37.63556 -76.87136 19045 ft 373 kts 48°
2026-04-21 18:59 37.65068 -76.84441 19751 ft 378 kts 47°
2026-04-21 19:00 37.66604 -76.81706 20438 ft 383 kts 47°
2026-04-21 19:00 37.68153 -76.78950 21111 ft 387 kts 47°
2026-04-21 19:00 37.69941 -76.76447 21753 ft 380 kts 33°
2026-04-21 19:00 37.72141 -76.74691 22384 ft 374 kts 20°
2026-04-21 19:01 37.74522 -76.73313 23016 ft 376 kts 17°
2026-04-21 19:01 37.76954 -76.72042 23638 ft 379 kts 15°
2026-04-21 19:01 37.79423 -76.70834 24184 ft 382 kts 14°
2026-04-21 19:01 37.81933 -76.69682 24696 ft 384 kts 13°
2026-04-21 19:02 37.84469 -76.68948 25170 ft 378 kts 360°
2026-04-21 19:02 37.87082 -76.68904 25641 ft 377 kts 355°
2026-04-21 19:02 37.89731 -76.68960 26108 ft 380 kts 355°
2026-04-21 19:02 37.92405 -76.68949 26416 ft 384 kts 357°
2026-04-21 19:03 37.95086 -76.68798 26731 ft 387 kts 359°
2026-04-21 19:03 37.97785 -76.68574 27035 ft 389 kts 359°
2026-04-21 19:03 38.00417 -76.68378 27323 ft 391 kts 359°
2026-04-21 19:03 38.03127 -76.67793 27598 ft 401 kts 12°
2026-04-21 19:04 38.05699 -76.66303 27885 ft 411 kts 24°
2026-04-21 19:04 38.08191 -76.64526 28165 ft 412 kts 23°
2026-04-21 19:04 38.10672 -76.62780 28374 ft 415 kts 23°
2026-04-21 19:04 38.13231 -76.60942 28733 ft 415 kts 24°
2026-04-21 19:05 38.15681 -76.59115 29068 ft 416 kts 26°
2026-04-21 19:05 38.17997 -76.56792 29245 ft 430 kts 39°
2026-04-21 19:05 38.20002 -76.53905 29318 ft 439 kts 44°
2026-04-21 19:06 38.24084 -76.47989 29362 ft 449 kts 40°
2026-04-21 19:06 38.28518 -76.42279 29372 ft 456 kts 37°
2026-04-21 19:06 38.30874 -76.39650 29370 ft 444 kts 33°
2026-04-21 19:07 38.33270 -76.37255 29359 ft 432 kts 31°
2026-04-21 19:07 38.38013 -76.32815 29360 ft 416 kts 30°
2026-04-21 19:08 38.42522 -76.28461 29357 ft 404 kts 31°
2026-04-21 19:08 38.46918 -76.24154 29361 ft 393 kts 31°
2026-04-21 19:09 38.51215 -76.19940 29359 ft 385 kts 31°
2026-04-21 19:09 38.55415 -76.15815 29358 ft 377 kts 31°
2026-04-21 19:10 38.59541 -76.11758 29354 ft 371 kts 30°
2026-04-21 19:10 38.62915 -76.08445 29351 ft 366 kts 30°
2026-04-21 19:11 38.66953 -76.04548 29361 ft 360 kts 29°
2026-04-21 19:11 38.70867 -76.00876 29360 ft 356 kts 28°
2026-04-21 19:12 38.74848 -75.97160 29353 ft 352 kts 28°
2026-04-21 19:12 38.78778 -75.93476 29356 ft 349 kts 28°
2026-04-21 19:13 38.82674 -75.89845 29352 ft 345 kts 28°
2026-04-21 19:13 38.86544 -75.86210 29359 ft 343 kts 28°
2026-04-21 19:14 38.90375 -75.82586 29369 ft 340 kts 28°
2026-04-21 19:14 38.94157 -75.79046 29367 ft 339 kts 28°
2026-04-21 19:15 38.97995 -75.75425 29358 ft 344 kts 28°
2026-04-21 19:15 39.01946 -75.71723 29356 ft 360 kts 28°
2026-04-21 19:16 39.06103 -75.67882 29350 ft 373 kts 24°
2026-04-21 19:16 39.08458 -75.66556 29355 ft 367 kts
2026-04-21 19:16 39.10959 -75.66185 29356 ft 363 kts 354°
2026-04-21 19:17 39.18679 -75.66542 29351 ft 379 kts 359°
2026-04-21 19:17 39.24012 -75.65902 29350 ft 389 kts
2026-04-21 19:18 39.29416 -75.65039 28975 ft 402 kts
2026-04-21 19:18 39.31991 -75.63666 28553 ft 398 kts 24°
2026-04-21 19:18 39.34175 -75.61475 28137 ft 398 kts 38°
2026-04-21 19:19 39.35891 -75.58669 27738 ft 397 kts 48°
2026-04-21 19:19 39.37357 -75.55692 27322 ft 390 kts 50°
2026-04-21 19:19 39.38786 -75.52735 26901 ft 382 kts 50°
2026-04-21 19:19 39.39490 -75.51289 26711 ft 378 kts 49°
2026-04-21 19:20 39.40610 -75.49000 26382 ft 372 kts 49°
2026-04-21 19:21 39.41994 -75.46133 25988 ft 370 kts 53°
2026-04-21 19:21 39.43031 -75.43081 25603 ft 372 kts 61°
2026-04-21 19:21 39.43894 -75.39979 25185 ft 370 kts 62°
2026-04-21 19:21 39.44741 -75.36854 24760 ft 367 kts 62°
2026-04-21 19:22 39.45811 -75.33932 24233 ft 350 kts 47°
2026-04-21 19:22 39.47304 -75.31593 23630 ft 334 kts 38°
2026-04-21 19:22 39.48923 -75.29454 22942 ft 327 kts 35°
2026-04-21 19:22 39.50578 -75.27469 22265 ft 319 kts 31°
2026-04-21 19:23 39.52320 -75.25751 21616 ft 311 kts 26°
2026-04-21 19:23 39.54093 -75.24239 20986 ft 299 kts 23°
2026-04-21 19:23 39.55834 -75.22847 20367 ft 289 kts 22°
2026-04-21 19:23 39.57489 -75.21524 19758 ft 282 kts 23°
2026-04-21 19:24 39.59113 -75.20163 19162 ft 277 kts 24°
2026-04-21 19:24 39.60704 -75.18790 18556 ft 272 kts 24°
2026-04-21 19:24 39.62222 -75.17491 17904 ft 267 kts 24°
2026-04-21 19:24 39.63766 -75.16173 17234 ft 264 kts 24°
2026-04-21 19:25 39.65284 -75.14873 16583 ft 260 kts 24°
2026-04-21 19:25 39.66781 -75.13590 15950 ft 258 kts 24°
2026-04-21 19:25 39.68282 -75.12302 15326 ft 256 kts 25°
2026-04-21 19:25 39.69764 -75.11033 14715 ft 254 kts 25°
2026-04-21 19:26 39.71218 -75.09785 14268 ft 247 kts 25°
2026-04-21 19:26 39.72614 -75.08564 13817 ft 246 kts 29°
2026-04-21 19:26 39.73926 -75.07040 13345 ft 252 kts 37°
2026-04-21 19:26 39.75079 -75.05437 12903 ft 256 kts 40°
2026-04-21 19:27 39.76240 -75.03693 12458 ft 257 kts 41°
2026-04-21 19:27 39.77404 -75.01948 12015 ft 258 kts 40°
2026-04-21 19:27 39.78614 -75.00179 11562 ft 258 kts 39°
2026-04-21 19:27 39.79829 -74.98457 11131 ft 258 kts 39°
2026-04-21 19:28 39.81044 -74.96730 10703 ft 259 kts 39°
2026-04-21 19:28 39.82254 -74.94999 10285 ft 260 kts 41°
2026-04-21 19:28 39.83205 -74.92960 9813 ft 272 kts 63°
2026-04-21 19:28 39.83676 -74.90535 9362 ft 277 kts 72°
2026-04-21 19:29 39.84042 -74.88071 8885 ft 277 kts 74°
2026-04-21 19:29 39.84391 -74.85600 8422 ft 277 kts 75°
2026-04-21 19:29 39.84740 -74.83138 7976 ft 274 kts 75°
2026-04-21 19:29 39.85087 -74.80738 7541 ft 268 kts 75°
2026-04-21 19:30 39.85445 -74.78372 7099 ft 263 kts 75°
2026-04-21 19:30 39.85811 -74.76061 6688 ft 258 kts 76°
2026-04-21 19:30 39.86183 -74.73822 6262 ft 254 kts 76°
2026-04-21 19:30 39.86570 -74.71609 5845 ft 251 kts 75°
2026-04-21 19:31 39.87131 -74.69472 5369 ft 246 kts 61°
2026-04-21 19:31 39.88009 -74.67613 4920 ft 236 kts 55°
2026-04-21 19:31 39.88892 -74.65862 4454 ft 227 kts 63°
2026-04-21 19:31 39.89528 -74.64014 4053 ft 221 kts 58°
2026-04-21 19:32 39.90575 -74.62662 3622 ft 214 kts 30°
2026-04-21 19:32 39.91980 -74.62073 3258 ft 208 kts
2026-04-21 19:32 39.93334 -74.62392 3119 ft 193 kts 332°
2026-04-21 19:32 39.94304 -74.63484 3093 ft 180 kts 302°
2026-04-21 19:33 39.94618 -74.64450 3046 ft 170 kts 280°
2026-04-21 19:33 39.94307 -74.66354 3123 ft 161 kts 243°
2026-04-21 19:33 39.93925 -74.67702 3168 ft 159 kts 253°
2026-04-21 19:33 39.93786 -74.69159 3176 ft 170 kts 265°
2026-04-21 19:34 39.93830 -74.70688 3134 ft 180 kts 274°
2026-04-21 19:34 39.93993 -74.72379 2910 ft 192 kts 272°
2026-04-21 19:34 39.93952 -74.74086 3024 ft 188 kts 264°
2026-04-21 19:34 39.93862 -74.75762 3013 ft 184 kts 267°
2026-04-21 19:35 39.93838 -74.77463 2771 ft 191 kts 270°
2026-04-21 19:35 39.93755 -74.80822 2658 ft 184 kts 264°
2026-04-21 19:35 39.93708 -74.82459 2718 ft 174 kts 267°
2026-04-21 19:36 39.93559 -74.84016 2597 ft 181 kts 259°
2026-04-21 19:36 39.93387 -74.85666 2599 ft 180 kts 260°
2026-04-21 19:36 39.93137 -74.87281 2466 ft 183 kts 257°
2026-04-21 19:36 39.92846 -74.88891 2475 ft 184 kts 258°
2026-04-21 19:37 39.92584 -74.90592 2235 ft 198 kts 257°
2026-04-21 19:37 39.92261 -74.92339 2091 ft 188 kts 253°
2026-04-21 19:37 39.91881 -74.93736 1992 ft 142 kts 253°
2026-04-21 19:37 39.91717 -74.94874 1970 ft 120 kts 259°
2026-04-21 19:38 39.91686 -74.95915 2130 ft 106 kts 277°
2026-04-21 19:38 39.91822 -74.96843 1374 ft 152 kts 259°
2026-04-21 19:38 39.91806 -74.97950 1347 ft 197 kts 282°
2026-04-21 19:38 39.92220 -75.00372 2595 ft 221 kts 266°
2026-04-21 19:39 39.92028 -75.02248 3121 ft 182 kts 259°
2026-04-21 19:39 39.91816 -75.03684 3292 ft 151 kts 255°
2026-04-21 19:39 39.91525 -75.04927 3165 ft 138 kts 249°
2026-04-21 19:39 39.91198 -75.06052 3044 ft 139 kts 248°
2026-04-21 19:40 39.90847 -75.07240 2752 ft 151 kts 249°
2026-04-21 19:40 39.90458 -75.08539 2611 ft 167 kts 250°
2026-04-21 19:40 39.90070 -75.10046 2416 ft 174 kts 252°
2026-04-21 19:40 39.89705 -75.11591 2109 ft 181 kts 252°
2026-04-21 19:41 39.89382 -75.13089 2019 ft 167 kts 255°
2026-04-21 19:41 39.89088 -75.14545 1660 ft 164 kts 254°
2026-04-21 19:41 39.88802 -75.15893 1482 ft 144 kts 252°
2026-04-21 19:41 39.88539 -75.17069 1260 ft 126 kts 252°
2026-04-21 19:42 39.88331 -75.18149 968 ft 124 kts 255°
2026-04-21 19:42 39.88119 -75.19327 788 ft 137 kts 256°
2026-04-21 19:42 39.87892 -75.20455 520 ft 115 kts 256°
2026-04-21 19:42 39.87714 -75.21360 255 ft 95 kts 258°
2026-04-21 19:43 39.87534 -75.22248 88 ft 100 kts 255°
2026-04-21 19:43 39.87411 -75.22865 24 ft 39 kts 255°
2026-04-21 19:43 39.87397 -75.23097 25 ft 13 kts 327°
2026-04-21 19:43 39.87444 -75.23113 24 ft 0 kts 348°
2026-04-21 19:44 39.87461 -75.23122 24 ft 2 kts 308°
2026-04-21 19:44 39.87463 -75.23165 24 ft 10 kts 258°
2026-04-21 19:44 39.87444 -75.23257 25 ft 11 kts 256°
2026-04-21 19:44 39.87423 -75.23364 24 ft 13 kts 255°
2026-04-21 19:45 39.87398 -75.23485 24 ft 14 kts 255°
2026-04-21 19:45 39.87373 -75.23606 25 ft 12 kts 256°
2026-04-21 19:45 39.87361 -75.23668 24 ft 3 kts 256°
2026-04-21 19:45 39.87345 -75.23752 26 ft 22 kts 255°
2026-04-21 19:46 39.87304 -75.23959 24 ft 20 kts 255°
2026-04-21 19:46 39.87280 -75.24075 24 ft 6 kts 255°
2026-04-21 19:46 39.87268 -75.24146 24 ft 10 kts 274°
2026-04-21 19:46 39.87314 -75.24212 24 ft 7 kts 301°
2026-04-21 19:47 39.87317 -75.24245 24 ft 7 kts 263°
2026-04-21 19:47 39.87301 -75.24336 25 ft 11 kts 259°
2026-04-21 19:47 39.87301 -75.24393 24 ft 1 kts 274°
2026-04-21 19:47 39.87289 -75.24436 24 ft 8 kts 238°
2026-04-21 19:48 39.87294 -75.24455 24 ft 3 kts 334°
2026-04-21 19:48 39.87326 -75.24446 24 ft 6 kts 35°
2026-04-21 19:48 39.87337 -75.24436 24 ft 0 kts 34°